Vorticity
7 7 7 7 7 6 6 6 6 5 5 5 4 4 4 4 4 5 5 5 6 7 8 9 9 10 10 10 10 10 10 10 11 10 10 9 8 7 5 4 4 4 4 5 7 8 9 10 10 11 12 14 15 17 18 20 19 18 17 16 16 16 15 14 11 10 9 9 10
7 7 7 6 6 6 6 5 5 5 4 4 4 4 5 5 5 6 7 7 8 9 9 10 10 10 10 10 11 11 10 10 10 9 8 7 6 5 4 4 4 5 6 8 9 10 10 10 11 12 14 16 18 19 20 20 18 17 16 16 15 14 13 11 9 8 9 10 10
7 7 7 6 6 5 5 5 5 5 5 5 5 5 6 6 7 8 9 9 10 10 10 11 11 11 11 11 11 11 10 9 9 7 6 5 4 4 4 4 6 7 9 10 10 11 11 11 13 14 16 18 20 20 20 18 17 16 15 14 13 11 10 8 8 9 10 10 10
7 6 6 6 5 5 5 5 5 5 5 6 6 6 7 8 8 9 10 10 10 10 10 11 11 11 11 11 10 9 9 8 6 5 4 4 4 4 5 7 9 10 10 11 11 11 12 13 15 17 19 20 21 20 18 16 15 14 14 12 10 8 8 8 9 10 10 10 10
6 5 5 5 5 5 5 5 6 6 7 7 8 8 9 9 9 10 10 10 10 11 11 11 11 11 10 10 9 7 6 5 4 4 4 4 6 7 8 10 10 10 10 10 11 13 14 15 17 19 21 22 21 18 16 13 13 12 10 9 7 7 8 9 10 11 11 10 9
5 5 5 5 5 6 6 6 7 7 8 8 9 9 9 10 10 10 10 10 11 11 11 11 10 9 8 7 6 5 5 4 4 5 6 7 9 10 10 11 10 10 11 12 13 15 16 17 19 21 22 21 18 16 13 11 10 9 8 7 7 8 9 10 11 11 10 10 9
5 5 5 6 6 6 7 7 8 8 8 8 8 9 10 10 10 10 10 11 11 11 10 9 8 7 6 5 5 5 5 6 7 8 9 10 10 10 10 10 10 11 13 14 15 17 18 20 21 21 20 18 15 12 10 9 8 7 7 7 8 9 10 11 11 11 10 9 9
6 6 7 7 7 7 7 8 8 8 8 8 8 9 10 10 10 10 10 10 10 9 8 7 6 6 5 5 6 6 7 8 9 10 10 10 10 10 10 11 12 14 15 16 17 18 20 22 21 19 16 13 11 9 8 7 6 6 7 8 9 11 12 12 11 10 9 9 8
8 8 8 8 8 7 7 7 7 8 8 9 9 10 10 10 10 10 10 9 8 8 7 6 6 6 7 7 8 9 10 10 10 10 10 10 10 11 12 14 15 16 17 18 19 20 21 21 19 15 12 10 8 7 6 6 6 7 8 10 11 12 13 12 10 9 9 8 8
8 8 8 7 7 7 7 7 8 8 8 9 10 10 10 10 10 9 9 8 8 7 7 8 8 9 9 10 10 10 10 10 10 10 10 11 13 14 15 16 16 17 18 19 21 21 20 17 14 11 9 7 6 6 6 6 7 9 10 12 13 13 12 10 9 9 8 8 9
7 7 7 7 7 7 7 8 9 9 9 10 10 10 10 10 9 9 8 8 8 9 9 10 10 11 11 11 10 10 9 9 10 11 12 14 15 16 16 17 17 18 19 20 21 19 16 12 9 8 6 6 6 6 6 7 9 11 12 14 13 12 10 9 9 9 9 9 9
6 6 6 6 7 7 8 9 9 10 10 11 11 11 10 10 9 9 9 10 10 10 11 11 11 11 10 10 9 10 10 11 13 14 15 16 16 17 17 18 19 19 20 20 18 15 11 8 6 6 6 6 6 7 8 9 11 12 13 13 12 10 9 9 9 9 9 9 8
6 7 7 7 8 8 9 10 11 11 11 11 11 10 10 10 10 10 10 11 11 11 11 10 10 10 10 10 10 12 13 14 15 16 16 17 17 18 18 19 20 20 19 17 13 9 6 5 5 5 6 6 7 8 9 11 13 13 12 11 10 9 9 9 9 9 9 8 8
7 8 8 9 10 11 12 12 12 12 12 11 11 11 11 10 10 11 11 11 11 10 10 10 10 11 12 12 13 15 15 16 17 17 17 18 18 19 19 19 19 17 15 11 7 5 4 4 5 5 6 7 9 10 12 13 13 12 11 10 9 9 9 9 9 8 8 8 8
10 10 11 12 13 14 14 13 12 12 11 11 11 11 10 10 10 10 11 11 11 11 11 12 13 14 15 16 16 16 17 17 18 18 18 19 19 19 18 17 15 12 9 6 5 4 4 5 6 7 8 9 11 12 13 13 12 10 9 9 9 9 9 9 8 8 8 8 8
13 14 15 15 15 14 14 12 12 11 11 11 10 10 10 10 10 11 12 12 13 13 14 15 16 16 17 17 17 17 18 18 18 19 19 18 17 16 15 12 10 8 6 5 5 5 6 7 8 9 10 11 12 13 12 11 10 9 9 9 9 9 8 8 8 8 8 8 7
17 17 16 16 14 13 12 11 11 10 10 10 10 11 11 11 12 13 14 15 15 16 16 17 17 17 17 18 18 18 18 18 18 18 17 16 14 12 10 8 7 6 5 5 6 7 8 8 10 11 12 12 12 12 11 10 9 9 8 8 8 8 8 8 8 8 8 8 7
17 16 15 14 12 11 11 10 10 10 10 10 11 12 13 14 14 15 16 17 17 17 17 17 18 18 18 18 18 18 18 17 16 15 13 12 10 8 7 6 6 6 6 6 7 8 9 10 11 12 12 12 11 10 9 9 8 8 8 8 8 8 8 8 8 8 7 7 7
14 13 12 11 11 10 10 10 10 10 11 11 13 14 15 16 16 16 17 18 18 18 18 18 18 18 18 18 17 16 16 14 13 11 9 8 7 6 6 6 6 6 7 7 8 9 10 11 12 12 11 11 10 9 8 8 8 8 8 8 8 8 8 8 7 7 7 6 6
12 11 10 10 10 10 10 10 10 11 12 13 14 15 16 16 17 17 18 18 19 19 18 18 17 17 16 16 15 13 12 10 9 7 7 6 6 6 6 6 7 7 8 9 10 11 11 12 12 11 10 9 9 8 8 8 8 8 8 8 8 7 7 7 6 6 5 5 5
10 10 10 10 10 10 10 10 11 12 13 14 15 16 16 17 17 18 19 18 18 18 17 16 15 14 13 12 11 9 8 7 6 6 6 6 6 6 6 7 8 9 9 10 11 11 11 11 10 9 9 8 8 8 8 8 8 7 7 7 7 6 6 6 5 5 4 4 4
10 11 11 11 11 10 10 11 12 13 14 15 15 16 16 17 17 17 17 17 16 15 14 13 12 11 10 8 7 7 6 6 5 6 6 6 6 7 7 8 9 10 10 11 11 11 11 10 9 9 8 8 8 8 7 7 7 7 6 6 5 5 5 4 4 4 3 3 3
11 11 11 11 11 10 10 11 12 12 13 13 14 14 15 15 15 15 14 13 12 11 10 9 9 8 7 6 6 6 6 6 6 6 7 7 8 8 9 9 10 11 11 11 11 10 10 9 8 8 8 7 7 7 7 7 6 6 5 5 4 4 4 3 3 3 3 3 3
12 12 12 11 10 10 10 10 11 11 11 12 12 12 12 12 12 11 11 10 9 9 8 8 7 7 6 6 6 6 7 7 7 7 8 8 9 9 10 10 11 11 11 10 10 9 9 8 8 8 7 7 7 6 6 6 5 5 4 4 4 3 3 3 3 3 3 3 3
12 12 11 11 10 9 9 9 9 10 10 10 9 9 9 8 8 8 8 8 8 8 7 7 7 7 7 7 7 7 7 8 8 8 9 9 10 10 11 11 11 11 10 9 9 8 8 8 8 7 7 7 6 6 5 5 4 4 4 3 3 3 3 3 3 3 3 3 3
12 11 11 10 9 9 8 8 9 8 8 7 6 6 6 6 7 7 7 7 7 7 7 7 7 7 7 7 8 8 8 9 9 9 10 10 11 11 11 11 10 10 9 9 8 8 8 8 7 7 7 6 6 5 4 4 4 3 3 3 3 3 3 3 3 3 3 3 3
11 11 10 9 9 8 8 8 8 7 6 5 4 5 5 6 6 7 7 7 7 7 7 7 7 7 7 8 8 9 9 9 10 10 10 10 11 11 10 10 10 9 9 8 8 8 8 7 7 6 6 6 5 4 4 3 3 3 3 3 3 3 3 3 3 3 3 3 3
10 10 9 9 8 8 8 8 7 5 4 4 4 5 6 6 7 7 7 7 7 7 7 7 7 8 8 8 9 9 9 10 10 10 10 10 10 10 10 9 9 9 8 8 8 8 7 7 6 6 5 5 4 4 4 3 3 3 3 3 3 3 3 3 3 3 3 3 4
9 9 8 8 8 9 8 7 6 5 5 5 5 6 6 7 7 7 7 7 7 7 7 7 8 8 8 9 9 9 9 10 10 10 10 10 10 9 9 9 8 8 8 8 8 7 7 7 6 6 5 5 4 4 3 3 3 3 3 3 3 3 3 3 3 3 4 4 4
8 8 8 8 9 8 8 7 6 6 6 6 7 7 7 7 7 7 7 8 8 8 8 8 8 8 8 9 9 9 9 9 9 9 9 9 9 8 8 8 8 8 7 7 7 7 6 6 5 5 4 4 4 3 3 3 3 3 3 3 3 3 3 3 3 4 4 4 4
7 7 8 8 8 8 8 7 7 7 7 7 7 7 7 7 8 8 8 9 9 9 8 8 8 8 8 8 9 9 9 9 9 8 8 8 8 8 8 7 7 7 7 7 6 6 6 5 5 4 4 3 3 3 3 3 3 3 3 3 3 3 3 4 4 4 4 4 4
7 7 8 8 9 9 9 9 8 8 8 7 7 7 8 8 9 10 10 10 9 8 8 7 7 8 8 8 8 8 8 8 8 8 7 7 7 7 7 7 7 6 6 6 6 5 5 4 4 4 3 3 3 3 3 3 3 3 3 3 3 3 4 4 4 4 4 5 5
6 7 8 9 10 10 10 9 9 8 7 7 7 8 9 10 11 11 10 9 8 8 7 7 7 7 7 7 7 7 7 7 7 7 7 7 6 6 6 6 6 6 6 5 5 5 4 4 4 3 3 3 3 3 3 3 3 3 3 3 4 4 4 4 4 5 5 5 5
6 8 9 10 11 11 10 9 7 7 6 7 8 9 11 12 11 11 9 8 7 7 7 7 7 7 7 7 7 6 6 6 6 6 6 6 6 5 5 5 5 5 5 5 4 4 4 4 3 3 3 3 3 3 3 3 3 3 3 4 4 4 4 5 5 5 5 5 5
7 9 10 11 11 10 8 7 6 6 7 8 10 11 12 12 11 10 9 8 7 6 6 6 6 6 6 6 6 6 6 5 5 5 5 5 5 5 4 4 4 4 4 4 4 4 4 3 3 3 3 3 3 3 3 3 3 4 4 4 4 4 5 5 5 5 6 6 6
9 10 11 11 9 8 7 6 6 7 8 10 11 12 12 11 10 9 8 7 6 6 6 6 6 6 6 5 5 5 5 5 5 5 4 4 4 4 4 4 4 4 3 3 3 3 3 3 3 3 3 3 3 3 3 3 4 4 4 4 5 5 5 5 6 6 6 6 6
9 10 10 10 8 7 6 6 7 9 10 12 12 12 11 10 9 8 7 6 6 5 5 5 5 5 5 5 5 5 5 4 4 4 4 4 4 4 4 4 4 4 3 3 3 3 3 3 3 3 3 3 3 3 4 4 4 4 5 5 5 5 6 6 6 6 6 6 5
8 8 9 8 7 7 7 8 9 10 11 12 12 11 11 10 9 7 6 5 5 5 5 5 5 5 5 5 5 5 4 4 4 4 4 4 3 4 4 4 4 4 3 3 3 3 3 3 3 3 3 3 4 4 4 4 4 5 5 5 6 6 6 6 6 6 5 5 5
7 8 8 8 8 8 9 9 10 11 12 12 12 11 10 9 8 7 6 5 5 5 5 5 5 5 5 5 4 4 4 4 4 4 4 4 4 3 3 4 4 4 4 3 3 3 3 3 3 3 3 3 4 4 4 5 5 5 6 6 6 6 6 6 6 5 5 5 5
8 8 9 9 10 10 10 11 11 11 12 12 11 11 10 9 8 7 6 5 5 5 5 5 5 5 5 4 4 4 4 4 4 4 4 4 4 4 3 4 4 4 4 4 4 4 4 3 4 4 4 4 4 4 5 5 6 6 6 6 6 6 6 6 5 5 5 5 5
9 10 11 11 11 11 11 11 11 11 11 11 11 10 10 9 8 7 6 5 5 4 4 5 5 5 4 4 4 4 4 4 4 4 4 4 4 4 4 4 4 4 4 4 4 4 4 4 4 4 4 4 5 5 6 6 6 6 6 7 6 6 6 5 5 5 5 5 6
Height
5725 5725 5726 5726 5726 5727 5727 5728 5728 5728 5728 5728 5728 5729 5729 5729 5729 5729 5729 5729 5729 5729 5729 5729 5729 5729 5729 5729 5729 5729 5728 5728 5728 5728 5728 5728 5728 5728 5728 5728 5727 5727 5727 5726 5726 5726 5725 5725 5724 5724 5723 5723 5723 5722 5721 5721 5721 5721 5720 5720 5719 5719 5719 5718 5718 5717 5717 5716 5715
5721 5722 5722 5723 5723 5723 5724 5724 5724 5724 5725 5725 5725 5725 5725 5726 5726 5726 5726 5726 5726 5726 5726 5726 5725 5725 5725 5725 5725 5725 5725 5725 5725 5725 5725 5725 5725 5725 5724 5724 5724 5724 5723 5723 5723 5723 5722 5722 5722 5721 5720 5720 5719 5719 5718 5718 5718 5718 5718 5717 5717 5717 5716 5716 5715 5715 5714 5714 5713
5718 5719 5719 5719 5720 5720 5720 5721 5721 5721 5721 5721 5722 5722 5722 5722 5722 5722 5722 5722 5722 5722 5722 5722 5722 5722 5722 5722 5722 5722 5722 5722 5722 5722 5722 5722 5722 5722 5721 5721 5721 5720 5720 5720 5720 5719 5719 5719 5718 5718 5718 5717 5717 5716 5716 5715 5716 5716 5715 5715 5714 5714 5714 5713 5713 5713 5712 5711 5711
5715 5715 5716 5716 5717 5717 5717 5717 5718 5718 5718 5718 5718 5718 5718 5718 5719 5719 5719 5719 5719 5719 5719 5719 5719 5719 5719 5719 5718 5719 5719 5719 5719 5719 5719 5718 5718 5718 5718 5718 5718 5717 5717 5717 5716 5716 5716 5716 5715 5715 5715 5714 5714 5713 5713 5713 5713 5713 5713 5713 5712 5712 5712 5711 5710 5710 5709 5709 5708
5712 5712 5713 5713 5713 5713 5713 5714 5714 5714 5714 5715 5715 5715 5715 5715 5715 5715 5715 5715 5715 5715 5715 5716 5716 5715 5715 5715 5715 5715 5715 5715 5716 5715 5715 5715 5715 5715 5715 5715 5714 5714 5714 5713 5713 5713 5713 5712 5712 5712 5712 5712 5711 5711 5711 5711 5711 5711 5710 5710 5710 5709 5709 5708 5708 5708 5707 5706 5706
5708 5709 5709 5709 5710 5710 5710 5710 5711 5711 5711 5711 5712 5712 5712 5712 5712 5712 5712 5712 5712 5712 5712 5712 5712 5712 5712 5712 5712 5712 5712 5712 5712 5712 5712 5712 5712 5712 5712 5711 5711 5711 5711 5710 5710 5710 5709 5709 5709 5709 5709 5709 5709 5709 5708 5708 5708 5708 5708 5708 5708 5707 5707 5706 5705 5705 5704 5704 5703
5705 5706 5706 5706 5706 5707 5707 5707 5707 5708 5708 5708 5708 5708 5708 5708 5709 5709 5708 5708 5709 5709 5709 5709 5709 5709 5709 5709 5709 5709 5709 5709 5709 5709 5709 5709 5708 5708 5708 5708 5708 5708 5708 5707 5707 5707 5707 5706 5706 5706 5706 5706 5706 5706 5706 5706 5706 5706 5706 5705 5705 5705 5704 5703 5703 5703 5702 5702 5701
5702 5702 5703 5703 5703 5703 5704 5704 5704 5704 5704 5705 5705 5705 5705 5705 5705 5705 5705 5705 5705 5705 5705 5706 5706 5706 5706 5706 5706 5706 5706 5706 5705 5705 5705 5705 5705 5705 5705 5705 5705 5704 5704 5704 5704 5704 5704 5703 5704 5704 5704 5704 5704 5704 5704 5704 5703 5703 5703 5703 5703 5702 5702 5701 5701 5700 5699 5699 5699
5699 5699 5699 5700 5700 5700 5701 5701 5701 5701 5701 5701 5702 5702 5702 5702 5702 5702 5702 5702 5702 5702 5702 5702 5702 5703 5703 5703 5702 5702 5702 5702 5702 5702 5702 5702 5702 5702 5702 5702 5702 5702 5701 5701 5701 5701 5701 5701 5701 5701 5701 5702 5702 5702 5701 5701 5701 5701 5701 5700 5700 5700 5699 5699 5698 5698 5697 5697 5696
5696 5696 5696 5697 5697 5697 5698 5698 5698 5698 5698 5698 5698 5698 5698 5698 5698 5699 5699 5699 5699 5699 5699 5699 5699 5699 5699 5699 5699 5699 5699 5699 5699 5699 5699 5699 5699 5699 5699 5699 5699 5698 5698 5698 5698 5698 5698 5699 5699 5699 5699 5699 5699 5699 5699 5699 5699 5698 5698 5698 5698 5697 5697 5696 5696 5695 5695 5694 5694
5693 5693 5693 5693 5694 5694 5694 5694 5694 5695 5695 5695 5695 5695 5695 5695 5695 5695 5695 5695 5696 5696 5696 5696 5696 5696 5696 5696 5696 5696 5696 5696 5696 5696 5696 5696 5696 5696 5696 5696 5696 5696 5696 5696 5696 5696 5696 5696 5697 5697 5697 5697 5697 5697 5697 5696 5696 5696 5696 5695 5695 5695 5694 5694 5693 5693 5693 5692 5692
5689 5689 5690 5690 5690 5691 5691 5691 5691 5691 5692 5692 5692 5692 5692 5692 5692 5692 5692 5692 5692 5692 5692 5693 5693 5693 5693 5693 5693 5693 5693 5693 5693 5693 5693 5693 5693 5693 5693 5693 5693 5693 5693 5693 5693 5694 5694 5694 5694 5694 5694 5694 5694 5694 5694 5694 5694 5693 5693 5693 5693 5692 5692 5691 5691 5690 5690 5690 5689
5686 5686 5687 5687 5687 5688 5688 5688 5688 5688 5688 5688 5688 5688 5689 5689 5689 5689 5689 5689 5689 5689 5689 5689 5689 5689 5689 5689 5689 5689 5689 5689 5689 5689 5689 5689 5690 5690 5690 5690 5690 5690 5691 5691 5691 5691 5692 5692 5692 5692 5692 5692 5692 5692 5692 5692 5691 5691 5691 5691 5690 5690 5689 5689 5688 5688 5688 5687 5687
5683 5683 5683 5684 5684 5684 5684 5685 5685 5685 5685 5685 5685 5685 5685 5685 5685 5686 5686 5686 5686 5686 5686 5686 5686 5686 5686 5686 5686 5686 5686 5686 5686 5687 5687 5687 5687 5687 5687 5688 5688 5688 5688 5688 5689 5689 5689 5689 5689 5689 5689 5689 5689 5689 5689 5689 5689 5689 5688 5688 5688 5688 5687 5687 5686 5686 5685 5685 5684
5679 5680 5680 5680 5681 5681 5681 5681 5682 5682 5682 5682 5682 5682 5682 5682 5682 5682 5682 5682 5682 5682 5683 5683 5683 5683 5683 5683 5683 5683 5683 5683 5683 5683 5684 5684 5684 5684 5685 5685 5685 5686 5686 5686 5687 5687 5687 5687 5687 5687 5687 5687 5687 5687 5687 5687 5686 5686 5686 5686 5685 5685 5684 5684 5683 5683 5683 5682 5682
5676 5677 5677 5677 5678 5678 5678 5678 5678 5678 5679 5679 5679 5679 5679 5679 5679 5679 5679 5679 5679 5679 5679 5679 5679 5679 5679 5680 5680 5680 5680 5680 5681 5681 5681 5682 5682 5682 5683 5683 5683 5683 5684 5684 5684 5684 5684 5684 5684 5684 5684 5684 5684 5684 5684 5684 5684 5683 5683 5683 5683 5682 5682 5681 5681 5681 5680 5680 5679
5673 5673 5674 5674 5674 5675 5675 5675 5675 5675 5675 5675 5676 5676 5676 5676 5676 5676 5676 5676 5676 5676 5676 5676 5676 5676 5677 5677 5677 5677 5678 5678 5678 5678 5679 5679 5679 5680 5680 5681 5681 5681 5681 5682 5682 5682 5682 5682 5682 5682 5682 5682 5682 5682 5682 5682 5681 5681 5681 5680 5680 5680 5679 5679 5678 5678 5678 5677 5677
5670 5671 5671 5671 5671 5672 5672 5672 5672 5672 5673 5673 5673 5673 5673 5673 5673 5673 5673 5673 5673 5673 5673 5673 5673 5673 5674 5674 5674 5674 5675 5675 5676 5676 5676 5677 5677 5678 5678 5678 5678 5678 5679 5679 5679 5679 5679 5679 5679 5679 5679 5679 5679 5679 5679 5679 5679 5678 5678 5678 5678 5677 5677 5676 5676 5675 5675 5674 5674
5667 5668 5668 5668 5668 5669 5669 5669 5669 5669 5669 5669 5669 5669 5669 5670 5670 5670 5670 5670 5670 5670 5670 5670 5670 5671 5671 5671 5672 5672 5673 5673 5673 5674 5674 5674 5675 5675 5675 5676 5676 5676 5676 5676 5677 5677 5677 5677 5677 5677 5677 5677 5677 5677 5677 5676 5676 5676 5676 5675 5675 5674 5674 5673 5673 5673 5672 5672 5671
5664 5665 5665 5665 5665 5666 5666 5666 5666 5667 5667 5667 5667 5667 5667 5667 5667 5667 5667 5667 5667 5667 5668 5668 5668 5668 5668 5669 5669 5670 5670 5671 5671 5671 5672 5672 5673 5673 5673 5673 5673 5673 5674 5674 5674 5674 5674 5674 5675 5675 5675 5674 5674 5674 5674 5674 5673 5673 5673 5672 5672 5671 5671 5671 5670 5670 5669 5669 5668
5662 5662 5662 5662 5663 5663 5663 5663 5663 5664 5664 5664 5664 5664 5664 5664 5664 5664 5664 5664 5664 5665 5665 5665 5666 5666 5666 5667 5667 5668 5668 5668 5669 5669 5669 5670 5670 5670 5670 5671 5671 5671 5671 5671 5672 5672 5672 5672 5672 5672 5672 5672 5672 5672 5671 5671 5671 5670 5670 5669 5669 5668 5668 5668 5668 5667 5667 5666 5665
5659 5659 5659 5660 5660 5660 5660 5661 5661 5661 5661 5661 5661 5661 5661 5661 5661 5661 5662 5662 5662 5662 5663 5663 5663 5664 5664 5665 5665 5665 5666 5666 5666 5667 5667 5667 5668 5668 5668 5668 5668 5668 5669 5669 5669 5669 5670 5670 5670 5669 5669 5669 5669 5669 5668 5668 5668 5668 5667 5667 5666 5666 5665 5665 5665 5664 5664 5663 5663
5656 5656 5657 5657 5657 5658 5658 5658 5658 5658 5658 5658 5658 5658 5658 5658 5659 5659 5659 5659 5660 5660 5660 5661 5661 5662 5662 5663 5663 5663 5663 5664 5664 5664 5664 5665 5665 5665 5665 5666 5666 5666 5666 5667 5667 5667 5667 5667 5667 5667 5667 5667 5666 5666 5666 5665 5665 5665 5664 5664 5663 5663 5663 5662 5662 5661 5661 5660 5659
5653 5653 5654 5654 5654 5655 5655 5655 5655 5656 5656 5656 5656 5656 5656 5656 5657 5657 5657 5657 5658 5658 5658 5658 5659 5659 5660 5660 5660 5661 5661 5661 5662 5662 5662 5662 5663 5663 5663 5663 5663 5663 5664 5664 5664 5664 5664 5664 5664 5664 5664 5664 5663 5663 5663 5663 5662 5662 5662 5661 5661 5660 5660 5659 5659 5658 5658 5657 5656
5651 5651 5651 5652 5652 5652 5653 5653 5653 5653 5653 5653 5653 5654 5654 5654 5654 5655 5655 5655 5655 5656 5656 5656 5657 5657 5658 5658 5658 5658 5659 5659 5659 5659 5660 5660 5660 5660 5660 5661 5661 5661 5661 5662 5662 5662 5662 5662 5662 5662 5661 5661 5661 5660 5660 5660 5659 5659 5658 5658 5658 5658 5657 5657 5656 5655 5655 5654 5653
5648 5648 5649 5649 5649 5650 5650 5650 5650 5651 5651 5651 5651 5651 5652 5652 5652 5653 5653 5653 5653 5653 5654 5654 5654 5655 5655 5655 5656 5656 5656 5656 5657 5657 5657 5657 5658 5658 5658 5658 5658 5658 5659 5659 5659 5659 5659 5659 5659 5659 5658 5658 5658 5658 5657 5657 5657 5656 5656 5655 5655 5655 5654 5654 5653 5653 5652 5651 5650
5646 5646 5646 5647 5647 5647 5648 5648 5648 5648 5648 5649 5649 5649 5649 5649 5650 5650 5650 5651 5651 5651 5651 5652 5652 5652 5653 5653 5653 5653 5654 5654 5654 5654 5654 5655 5655 5655 5656 5656 5656 5656 5656 5656 5657 5657 5657 5657 5656 5656 5656 5655 5655 5655 5654 5654 5654 5653 5653 5653 5652 5652 5651 5651 5650 5649 5648 5648 5647
5643 5643 5644 5644 5644 5645 5645 5645 5645 5646 5646 5646 5646 5647 5647 5647 5647 5648 5648 5648 5648 5649 5649 5649 5649 5650 5650 5650 5651 5651 5651 5651 5652 5652 5652 5653 5653 5653 5653 5653 5653 5653 5653 5654 5654 5654 5654 5654 5653 5653 5653 5653 5652 5652 5652 5651 5651 5650 5650 5650 5649 5649 5648 5648 5647 5646 5645 5644 5643
5641 5641 5641 5642 5642 5642 5642 5643 5643 5643 5643 5643 5644 5644 5644 5645 5645 5645 5645 5646 5646 5646 5647 5647 5647 5647 5648 5648 5648 5648 5648 5649 5649 5649 5650 5650 5650 5650 5651 5651 5651 5651 5651 5651 5651 5651 5651 5651 5651 5650 5650 5650 5649 5649 5648 5648 5648 5648 5647 5647 5646 5646 5645 5644 5643 5643 5642 5641 5640
5638 5638 5639 5639 5639 5639 5640 5640 5640 5640 5641 5641 5641 5641 5642 5642 5642 5643 5643 5643 5643 5644 5644 5644 5644 5645 5645 5645 5646 5646 5646 5646 5647 5647 5647 5648 5648 5648 5648 5648 5648 5648 5648 5648 5648 5648 5648 5648 5648 5648 5647 5647 5647 5646 5646 5645 5645 5644 5644 5643 5643 5643 5642 5641 5640 5639 5639 5638 5637
5635 5636 5636 5636 5637 5637 5637 5637 5638 5638 5638 5638 5638 5639 5639 5640 5640 5640 5640 5641 5641 5641 5641 5642 5642 5642 5643 5643 5643 5643 5643 5644 5644 5644 5645 5645 5645 5645 5645 5645 5645 5645 5645 5645 5645 5645 5645 5645 5645 5644 5644 5644 5643 5643 5643 5642 5642 5642 5641 5640 5640 5639 5638 5638 5637 5636 5635 5634 5633
5633 5633 5633 5633 5634 5634 5634 5634 5635 5635 5635 5636 5636 5636 5637 5637 5637 5638 5638 5638 5638 5638 5639 5639 5639 5640 5640 5640 5640 5641 5641 5641 5642 5642 5642 5642 5642 5642 5642 5642 5642 5642 5642 5642 5642 5642 5642 5642 5642 5641 5641 5641 5640 5640 5640 5639 5639 5638 5638 5637 5637 5636 5635 5634 5634 5633 5632 5631 5630
5630 5630 5630 5631 5631 5631 5632 5632 5632 5633 5633 5633 5633 5634 5634 5634 5634 5635 5635 5635 5636 5636 5636 5637 5637 5637 5638 5638 5638 5638 5638 5638 5639 5639 5639 5639 5639 5639 5639 5639 5639 5639 5639 5639 5639 5639 5639 5639 5638 5638 5638 5638 5637 5637 5637 5636 5636 5635 5635 5634 5633 5633 5632 5631 5630 5629 5628 5627 5626
5627 5628 5628 5628 5628 5628 5629 5629 5629 5630 5630 5630 5631 5631 5631 5632 5632 5632 5633 5633 5633 5633 5633 5634 5634 5634 5635 5635 5635 5635 5636 5636 5636 5636 5636 5636 5636 5637 5637 5636 5636 5636 5636 5636 5636 5636 5636 5636 5635 5635 5635 5635 5634 5634 5633 5633 5633 5632 5632 5631 5630 5629 5628 5628 5627 5626 5625 5623 5623
5624 5625 5625 5625 5625 5626 5626 5627 5627 5627 5628 5628 5628 5628 5628 5629 5629 5629 5630 5630 5630 5630 5631 5631 5631 5632 5632 5632 5632 5633 5633 5633 5633 5633 5633 5633 5633 5633 5633 5633 5633 5633 5633 5633 5633 5633 5633 5633 5632 5632 5632 5632 5631 5631 5630 5630 5629 5629 5628 5628 5627 5626 5625 5624 5623 5622 5621 5620 5619
5622 5622 5622 5623 5623 5623 5623 5624 5624 5624 5625 5625 5625 5625 5626 5626 5626 5626 5627 5627 5628 5628 5628 5628 5628 5629 5629 5629 5629 5630 5630 5630 5630 5630 5630 5630 5630 5631 5631 5630 5630 5630 5630 5630 5630 5630 5629 5629 5629 5629 5629 5628 5628 5628 5627 5627 5626 5625 5625 5624 5623 5622 5621 5620 5619 5618 5617 5616 5615
5619 5619 5619 5620 5620 5620 5621 5621 5621 5622 5622 5622 5622 5623 5623 5623 5623 5623 5624 5624 5625 5625 5625 5626 5626 5626 5626 5627 5627 5627 5627 5627 5627 5627 5627 5627 5627 5628 5628 5628 5627 5627 5627 5627 5627 5626 5626 5626 5626 5626 5625 5625 5625 5624 5624 5623 5623 5622 5621 5620 5620 5619 5618 5617 5616 5614 5613 5612 5611
5616 5616 5616 5617 5617 5617 5618 5618 5618 5618 5619 5619 5619 5619 5620 5620 5620 5621 5621 5621 5622 5622 5623 5623 5623 5623 5623 5623 5624 5624 5624 5624 5624 5624 5624 5624 5624 5624 5624 5624 5624 5624 5624 5623 5623 5623 5623 5623 5623 5623 5622 5622 5621 5621 5620 5620 5619 5618 5618 5617 5616 5615 5614 5613 5612 5611 5609 5608 5607
5613 5613 5613 5613 5614 5614 5615 5615 5615 5616 5616 5616 5616 5617 5617 5617 5617 5618 5618 5618 5618 5619 5619 5620 5620 5620 5620 5620 5621 5621 5621 5621 5621 5621 5621 5621 5621 5621 5621 5621 5621 5621 5620 5620 5620 5620 5620 5619 5619 5619 5619 5618 5618 5617 5617 5616 5616 5615 5614 5613 5613 5611 5610 5609 5608 5607 5606 5604 5603
5610 5610 5610 5610 5611 5611 5611 5612 5612 5612 5613 5613 5613 5613 5614 5614 5614 5614 5615 5615 5615 5616 5616 5617 5617 5617 5617 5617 5618 5618 5618 5618 5618 5618 5618 5618 5618 5618 5618 5618 5618 5618 5617 5617 5617 5617 5616 5616 5616 5616 5615 5615 5614 5614 5613 5613 5612 5611 5611 5610 5609 5608 5607 5605 5604 5603 5602 5600 5599
5607 5607 5607 5607 5607 5608 5608 5608 5609 5609 5609 5609 5610 5610 5610 5611 5611 5611 5612 5612 5612 5613 5613 5613 5613 5614 5614 5614 5614 5614 5614 5614 5614 5614 5614 5614 5614 5614 5614 5614 5614 5614 5614 5614 5613 5613 5613 5613 5612 5612 5612 5611 5611 5610 5609 5609 5608 5608 5607 5606 5605 5604 5603 5602 5600 5599 5598 5596 5595